Regional Weather Roundup
Issued by NWS Green Bay, WI

Home | Current Version | Previous Version | Text Only | Print | Product List | Glossary On
Versions: 1 2 3 4 5 6 7 8 9 10 11 12 13 14 15 16 17 18 19 20 21 22 23 24 25 26 27 28 29 30 31 32 33 34 35 36 37 38 39 40 41 42 43 44 45 46 47 48 49 50
000
ASUS43 KGRB 291611
RWRGRB

NORTH-CENTRAL AND NORTHEAST WISCONSIN REGIONAL WEATHER ROUNDUP
NATIONAL WEATHER SERVICE GREEN BAY WI
1100 AM CDT FRI JUL 29 2016

WIZ005-009-010>012-018-019-291700-
NORTH CENTRAL WISCONSIN

CITY           SKY/WX    TMP DP  RH WIND       PRES   REMARKS
IRONWOOD       SUNNY     68  55  64 N10       30.08F
MANITOWISH WTR SUNNY     68  56  66 E5        30.10S
ARBOR VITAE    SUNNY     72  58  60 NE7       30.10S
EAGLE RIVER    SUNNY     70  53  55 E6        30.10R
LAND O LAKES   MOSUNNY   70  54  58 E7        30.11S
RHINELANDER    MOSUNNY   69  53  56 CALM      30.10R
PHILLIPS       MOSUNNY   69  55  61 E7        30.09S
ANTIGO         SUNNY     71  59  65 E9        30.08S
TOMAHAWK       MOSUNNY   69  55  62 E3        30.10R
MERRILL        SUNNY     71  58  64 NE5       30.08S
$$

WIZ013-073-291700-
NORTHEAST WISCONSIN

CITY           SKY/WX    TMP DP  RH WIND       PRES   REMARKS
IRON MOUNTAIN  MOSUNNY   73  58  59 NE7       30.07S
MARINETTE      MOSUNNY  N/A N/A N/A E9        30.06S
OCONTO         CLOUDY    71  69  94 NE7       30.04F
$$

WIZ017-030-035>037-045-291700-
CENTRAL WISCONSIN

CITY           SKY/WX    TMP DP  RH WIND       PRES   REMARKS
MEDFORD        MOSUNNY   69  56  64 NE5       30.08S
WAUSAU         SUNNY     71  59  65 E10       30.05S
MOSINEE        MOSUNNY   70  63  78 NE8       30.07S
MARSHFIELD     MOSUNNY   72  61  68 E10       30.05F
WISC RAPIDS    CLOUDY    71  60  68 E9        30.05F
STEVENS POINT  CLOUDY    66  60  81 E9        30.06S
WAUPACA        CLOUDY    67  63  87 N5        30.05S
SHAWANO        CLOUDY    72  63  74 NE6       30.06S
CLINTONVILLE   CLOUDY    66  59  77 NE3       30.06R
WAUTOMA        CLOUDY    65  62  90 NE8       30.04S
$$

WIZ038-039-048-051-291700-
FOX VALLEY

CITY           SKY/WX    TMP DP  RH WIND       PRES   REMARKS
NWS GREEN BAY  CLOUDY    68  66  93 NE12      30.04S
APPLETON       CLOUDY    66  63  88 NE10      30.03R
OSHKOSH        CLOUDY    69  63  81 NE7       30.03R
FOND DU LAC    LGT RAIN  68  65  90 NE8       30.03R
$$

WIZ022-050-052-291700-
EAST CENTRAL WISCONSIN

CITY           SKY/WX    TMP DP  RH WIND       PRES   REMARKS
EPHRAIM        FAIR      73  60  65 E5        30.05S
WASHINGTON ISL NOT AVBL
STURGEON BAY   PTSUNNY   73  59  61 E9        30.06S
MANITOWOC      CLOUDY    70  63  78 NE8       30.04R
SHEBOYGAN      CLOUDY    70  63  78 NE13      30.02R
$$

LMZ563-521-522-541>543-291700-
LAKESHORE

STATION/POSITION TIME  TEMP    WIND        PRES    VSBY  WAVE
                       AIR SEA DIR/SP/G                  HT/PER
                 (UTC) (F)     (DEG/KT/KT) (MB)    (MI)  (FT/S)
SHEBOYGAN LKSHOR 1600   65      10/  9/ 10 1016.9R
KEWAUNEE LKSHORE 1500   65      20/  2/  5 1016.7R
ALGOMA MARINA    1543           60/ 10/ 12   N/A
NORTHPORT PIER   1500   71     100/  9/ 11 1017.6S
N MID LAKE BUOY  1550   68 69   90/ 12/ 14 1017.4R         2/ 4
SISTER BAY LKSHO 1506   77      80/  7/ 11   N/A
CHAMBERS ISLAND  1540   71      20/  8/ 10 1017.6R
MENOMINEE LKSHOR 1500   69      20/  9/ 12 1016.7R
$$




USA.gov is the U.S. government's official web portal to all federal, state and local government web resources and services.